Wind_Speed
6 5 5 5 6 5 4 4 3 3 3 2 2 2 3 3 5 6 6 7 7 7 7 8 8 9 9 9 10 11 11 11 11 12 13 13 14 15 16 17 17 18
6 7 7 6 6 5 5 4 4 3 3 3 3 3 3 4 5 6 6 7 7 7 7 8 8 8 8 9 10 10 10 11 12 12 13 14 14 15 15 16 16 17
8 8 8 7 6 6 5 5 4 4 4 4 4 4 4 4 5 6 6 6 6 7 8 8 8 8 8 9 9 9 10 11 11 12 13 14 14 15 15 16 16 16
9 8 8 7 7 6 5 5 5 5 5 5 5 5 5 5 5 6 6 6 6 7 8 8 8 9 9 9 9 10 10 11 11 12 13 14 14 15 16 16 17 17
8 7 7 7 6 6 6 6 6 6 6 6 6 6 6 5 6 6 6 6 7 7 7 8 8 9 9 10 10 10 11 11 11 13 14 14 14 14 15 15 16 17
7 7 7 7 7 7 7 8 7 7 7 6 6 6 6 6 6 7 7 7 7 8 8 8 9 9 9 10 10 10 11 11 12 13 14 14 14 14 14 15 16 17
8 8 7 7 7 8 8 8 8 7 7 6 7 7 7 7 7 8 8 7 8 8 9 9 10 10 10 10 10 11 11 11 12 13 14 14 14 14 15 15 16 16
9 8 8 8 8 8 8 8 8 7 7 7 7 7 7 7 8 8 8 8 9 9 10 10 11 11 11 11 11 12 12 12 12 13 14 14 14 15 15 15 16 16
10 9 9 9 9 9 8 8 8 8 7 8 8 8 8 8 9 9 9 9 10 10 10 11 11 11 11 11 12 12 13 12 13 14 14 14 14 15 15 15 16 16
11 10 10 10 10 9 9 9 8 8 8 8 9 9 9 9 9 10 10 10 11 11 11 11 12 12 12 12 12 12 12 13 13 14 14 14 14 14 15 15 15 16
11 11 10 10 10 10 9 9 9 9 9 9 9 9 9 9 10 10 11 11 11 11 11 12 12 13 14 14 13 12 12 13 13 14 14 14 14 14 14 15 15 15
11 11 11 10 10 9 9 9 10 10 10 10 10 10 10 10 10 11 11 11 11 11 12 12 13 14 14 15 14 13 12 13 13 13 14 14 14 15 15 15 16 16
11 11 11 10 10 10 9 10 10 11 11 10 10 10 11 11 11 11 11 11 11 11 12 13 13 14 14 15 14 13 12 13 13 13 14 14 14 15 16 16 16 16
11 11 11 11 10 10 10 10 11 11 11 11 11 11 11 11 11 11 11 11 11 12 12 14 14 14 15 16 15 14 13 13 13 14 15 15 15 15 16 16 16 15
11 11 12 11 11 11 11 11 11 12 11 11 11 11 11 11 11 11 11 12 12 12 13 14 14 15 16 17 16 15 14 13 13 14 15 15 16 16 16 16 16 16
12 12 12 12 11 11 11 11 11 11 11 11 11 11 11 11 11 11 11 12 13 14 14 14 14 15 16 16 15 15 15 13 13 14 15 16 17 17 17 18 17 17
12 12 12 12 12 12 11 11 11 10 11 11 11 11 11 11 11 11 11 12 13 15 15 15 14 15 16 15 14 14 15 14 13 14 14 15 17 17 18 19 19 19
12 12 12 12 12 11 11 11 10 10 11 11 11 11 11 11 11 11 11 11 12 14 16 16 14 14 14 14 14 14 15 14 13 13 14 15 16 17 18 20 21 21
12 12 12 12 11 11 11 10 10 10 10 10 10 11 11 11 12 11 11 11 11 13 15 17 16 13 12 13 12 13 15 15 13 13 14 15 16 17 18 20 22 22
12 12 12 12 11 11 11 10 10 10 10 10 10 10 11 11 11 11 11 10 11 11 13 16 18 14 12 12 11 11 13 14 13 12 13 15 16 17 18 20 23 24
12 12 12 12 11 11 11 11 11 10 10 10 10 10 11 11 11 11 11 11 11 12 12 15 19 15 12 12 12 11 12 13 12 12 13 14 15 16 16 18 22 23
12 13 13 12 12 12 11 11 11 11 11 11 11 11 11 11 11 11 12 11 12 13 13 16 21 19 14 11 12 12 13 12 11 12 14 14 15 16 16 16 20 22
13 13 13 13 12 12 11 11 11 11 11 10 10 11 10 11 12 12 12 12 12 13 13 16 22 24 18 14 13 13 13 13 12 13 14 14 15 16 16 16 19 23
13 14 13 13 13 12 12 12 11 11 11 10 9 10 10 11 12 13 13 13 13 13 14 15 21 26 22 17 15 15 14 14 13 13 14 14 14 15 15 15 18 22
13 13 13 13 13 12 12 12 11 10 10 9 9 10 10 11 11 11 12 13 14 15 15 14 18 24 25 21 18 16 17 15 13 13 14 14 14 14 14 15 16 18
13 14 14 13 13 13 12 11 10 10 9 9 9 10 10 10 10 10 11 11 13 15 16 16 15 19 24 25 22 19 17 15 13 13 14 14 13 14 14 14 15 15
Wind_Direction
96 101 99 93 81 81 91 87 87 95 77 52 31 20 9 359 352 349 348 347 347 346 345 343 339 333 327 323 323 318 310 309 308 306 306 304 302 301 299 298 297 293
103 105 104 103 96 95 95 84 78 79 70 56 40 32 21 10 5 0 357 355 354 353 351 349 345 341 336 331 329 323 317 316 315 313 312 311 307 304 303 302 301 297
101 102 103 102 99 98 96 88 80 71 67 60 48 43 35 22 18 13 9 6 2 358 356 354 350 348 345 340 337 332 327 325 323 322 320 316 312 308 305 302 300 298
97 96 96 96 96 96 93 91 85 77 73 65 53 48 41 32 28 23 17 14 11 8 2 358 355 353 351 348 346 343 337 333 331 331 327 321 317 313 310 308 305 302
95 92 91 92 94 94 94 93 87 82 78 69 60 52 43 38 34 28 26 21 17 15 9 5 3 359 355 353 350 347 343 338 336 336 332 327 326 321 316 314 310 307
91 88 87 89 92 95 95 90 86 84 80 72 65 55 47 44 38 33 31 25 22 20 13 10 8 3 359 357 355 351 346 341 338 338 337 335 333 330 326 322 317 314
90 88 88 89 90 91 89 85 81 80 78 75 68 59 52 48 42 38 33 27 25 21 16 13 9 6 3 358 356 352 347 343 341 341 340 338 336 334 332 330 325 323
93 92 92 91 89 87 85 82 77 74 75 76 69 60 56 51 46 40 34 30 27 21 19 16 12 10 6 1 357 353 349 347 343 342 340 338 337 335 334 333 330 327
100 99 96 92 89 85 84 81 77 73 71 71 69 62 56 53 48 42 36 33 30 26 23 20 17 15 9 4 1 356 353 351 348 346 344 339 337 336 335 335 332 331
105 102 96 91 87 84 84 84 80 77 71 69 69 63 58 55 49 45 41 37 35 32 27 23 19 13 8 5 2 358 355 354 351 350 348 345 342 340 339 339 337 337
105 101 94 89 87 84 84 83 81 79 74 70 69 65 61 57 52 49 46 42 40 35 28 23 16 10 7 3 360 357 356 356 354 353 352 351 349 347 346 346 345 344
103 98 93 89 88 86 83 82 81 80 76 71 68 67 63 60 58 55 51 47 42 35 28 21 14 10 7 3 360 357 356 356 357 356 356 354 353 352 351 350 349 348
102 98 95 92 89 87 84 82 81 79 77 74 71 70 67 64 62 58 53 49 42 35 28 21 16 12 8 6 3 358 355 357 359 359 359 358 355 353 353 352 352 352
105 100 99 95 92 90 86 83 82 78 77 77 74 72 69 66 63 59 56 50 41 34 27 22 17 12 10 10 8 4 0 0 3 3 1 0 359 357 356 356 354 354
107 103 101 98 95 92 88 85 82 79 79 78 75 73 69 67 65 61 57 51 42 36 29 23 18 16 20 22 19 18 15 9 6 8 7 6 5 4 4 3 1 360
107 103 101 98 96 94 91 88 84 81 80 78 76 73 70 68 66 62 59 52 44 38 31 26 24 27 34 37 34 31 27 19 13 14 15 13 12 10 9 8 5 3
108 105 101 99 99 96 93 90 86 83 82 78 76 73 70 68 66 63 59 53 46 40 33 28 29 36 42 44 45 42 35 28 22 21 20 18 16 15 11 8 4 0
110 107 104 102 100 97 94 91 88 86 83 80 77 74 72 68 66 64 60 55 49 42 36 30 31 40 44 44 47 47 42 36 29 26 24 20 18 16 13 10 5 360
112 109 106 105 102 99 97 94 92 90 86 83 81 77 74 69 67 65 62 57 51 46 39 32 31 37 39 39 43 46 46 43 34 29 27 23 19 16 13 10 5 359
113 110 107 107 104 101 99 96 95 93 89 87 85 80 76 72 69 66 64 59 53 48 41 31 28 29 30 31 36 42 49 47 38 30 27 22 18 15 12 11 7 3
114 112 109 109 106 103 101 98 96 95 91 89 86 81 78 75 72 69 68 65 57 50 43 32 26 26 27 28 31 40 48 46 37 30 26 20 17 15 14 13 10 6
117 115 112 111 108 106 103 100 99 97 93 91 87 83 80 78 75 73 71 68 61 54 50 37 30 29 32 32 34 38 41 40 37 31 26 23 20 18 18 18 17 13
119 117 114 113 110 108 106 104 104 100 95 94 91 89 87 83 79 76 71 67 61 56 53 42 33 34 39 44 43 40 35 35 39 36 29 28 27 23 21 22 21 20
118 117 115 113 111 110 110 107 105 101 98 97 96 95 95 91 85 81 74 68 62 57 55 48 39 37 43 48 47 44 40 38 41 42 34 31 30 26 24 22 19 20
115 114 114 115 113 112 111 109 108 107 106 106 103 98 96 94 91 87 81 74 66 59 55 51 43 38 41 47 48 47 46 42 41 42 37 33 29 25 25 24 19 20
112 114 115 115 113 111 110 110 109 109 108 105 102 99 95 94 92 90 87 79 71 63 57 53 47 39 38 42 46 48 48 45 39 31 26 27 28 24 23 23 22 20
Height
818 818 818 818 818 819 819 820 820 821 822 822 823 823 824 824 824 824 824 823 823 822 822 821 820 820 819 819 818 817 817 816 815 814 813 812 811 809 808 807 806 805
818 818 818 818 819 820 820 821 821 822 823 824 824 824 824 825 824 824 824 824 823 823 822 821 821 820 820 819 818 817 817 816 815 814 813 812 811 809 808 806 805 804
819 818 818 819 819 820 821 821 822 823 823 824 825 825 825 825 825 825 825 824 824 823 823 822 821 821 820 819 819 818 817 816 815 814 813 812 810 809 807 806 805 803
819 819 819 819 820 821 821 822 823 823 824 825 825 826 826 826 826 826 825 825 824 824 823 823 822 821 821 820 819 818 817 817 816 814 813 812 811 809 807 806 804 803
820 820 820 821 821 821 822 822 823 824 825 825 826 827 827 827 827 827 826 826 825 824 824 823 822 822 821 820 819 818 818 817 816 815 813 812 811 809 807 806 804 803
820 820 821 822 822 823 823 823 824 824 825 826 826 827 827 828 828 827 827 826 826 825 824 823 823 822 821 820 819 819 818 817 816 815 813 812 810 809 807 806 804 803
821 821 822 823 824 824 825 825 825 825 826 826 827 827 828 828 828 828 828 827 827 826 825 824 824 823 822 821 820 819 818 817 816 815 814 812 811 809 808 806 804 803
822 823 823 824 825 826 826 826 827 827 827 827 827 828 828 828 828 828 828 828 827 827 826 825 824 823 823 821 820 820 818 817 816 815 814 812 811 809 808 807 805 803
823 824 825 825 826 827 827 828 828 828 828 828 828 828 828 828 829 829 829 828 828 827 826 826 825 824 823 822 821 820 819 818 817 815 814 813 811 810 808 807 805 803
824 825 826 826 827 828 828 829 829 829 829 829 829 829 829 829 829 829 829 829 828 828 827 827 826 824 824 822 821 821 819 818 817 816 815 813 812 810 809 807 806 804
825 826 827 827 828 829 829 830 830 830 830 830 830 830 830 830 830 829 830 829 829 829 828 827 826 825 824 823 822 821 820 819 818 816 815 814 813 811 809 808 807 805
826 827 828 829 829 831 831 831 831 831 831 831 831 831 831 831 830 830 830 830 830 830 829 829 827 826 824 822 822 821 820 820 818 817 816 815 813 812 810 809 807 806
828 828 829 830 831 832 832 832 832 831 831 831 832 832 832 831 831 831 831 831 832 831 831 830 828 826 824 823 822 821 821 820 819 818 817 815 814 813 811 810 808 807
829 829 830 831 832 832 833 833 833 832 832 833 833 833 832 832 832 832 832 833 833 832 832 830 829 827 825 823 823 822 821 820 820 819 817 816 815 813 812 810 809 807
830 830 830 831 832 833 833 833 833 833 834 834 834 833 833 833 833 833 834 834 834 834 833 832 830 828 826 825 824 823 822 821 821 820 818 817 816 814 813 811 810 808
830 831 831 832 833 833 834 834 834 835 835 835 835 835 835 835 835 835 835 835 835 835 834 833 831 830 829 827 826 825 823 822 822 821 820 819 817 815 814 812 811 809
830 831 832 833 833 834 834 835 835 836 836 836 836 836 836 836 836 836 836 837 837 836 836 834 833 832 830 829 827 826 824 823 823 822 821 820 819 817 816 814 812 810
831 831 832 833 834 834 835 836 836 837 837 837 837 837 837 837 837 838 838 838 838 838 837 836 835 833 832 830 828 826 825 824 824 824 823 822 821 819 818 816 814 812
831 832 833 833 834 835 836 837 837 838 838 838 838 838 838 839 839 839 839 839 839 839 839 838 836 834 833 831 829 827 826 825 825 825 824 823 822 821 820 818 816 814
831 832 833 834 835 836 837 838 838 839 839 839 839 839 839 840 840 840 841 841 841 841 840 839 837 835 833 831 829 828 827 826 826 826 825 825 824 823 822 820 819 816
831 832 834 835 836 837 838 839 839 839 840 840 839 840 840 841 842 842 842 842 842 842 841 840 838 836 834 832 830 829 828 827 827 827 826 826 825 824 823 822 821 819
832 833 835 836 837 838 838 839 840 840 840 841 841 842 842 843 843 843 843 843 843 843 842 841 839 836 834 832 831 829 828 827 828 828 827 827 826 825 825 823 822 820
832 833 835 836 837 838 839 840 841 841 841 842 842 843 844 844 845 845 845 844 844 844 843 842 840 837 835 833 832 831 829 828 828 828 828 828 827 826 826 824 823 821
833 834 835 837 838 839 840 841 841 842 843 843 844 845 845 846 846 846 846 846 845 845 844 843 842 839 837 835 834 832 830 829 829 829 829 829 828 827 827 826 824 822
834 835 836 838 839 840 841 841 842 843 844 844 845 845 846 846 847 847 847 847 847 846 845 844 843 841 839 837 836 834 831 831 831 831 830 830 829 828 827 826 825 824
835 837 838 839 840 841 842 843 843 844 845 845 845 846 846 847 847 848 848 848 847 847 846 845 845 843 842 840 838 836 834 833 833 833 831 831 830 829 828 827 826 825